Content
SEND FEEDBACK

Daily
Averages
Monthly
Summary
United States of America

RAPID CITY, SOUTH DAKOTA


Home > North America > United States > South Dakota
Elevation: 963 meters     Latitude: 44 03N     Longitude: 103 04W

WEATHER
 
SELECT A DAY
Number of Records: 200,530;   Date Range: 1/1/95 - 9/18/14
 
SHARE

PRINT THIS DATA

[ ← Previous Day ]
WEATHER ALMANAC - 20 JANUARY, 2013
[ Next Day → ]
[ °F ]   °C
Weather ElementAverageHighLow
Temperature-8.3 °C-3.3 °C (12:52 pm)-11 °C (10:05 pm)
Dewpoint-12 °C-9 °C (10:13 am)-15 °C (8:52 pm)
Humidity75.8 %88 % (2:52 am)58 % (12:52 pm)
Barometer1028.4 hPa1033.2 hPa (9:52 am)1018.6 hPa (4:11 am)
Wind Speed22.5 km/h42.6 km/h (1:52 pm)
Wind Gust55.5 km/h (12:52 pm)
Weather ElementAverage
Visibility15.9 km
Wind DirectionSW (228.8 °)

Weather ElementTotal
Precipitation---
Heating Degree Days25.5 (Base 18.3)
Averaged from 34 records on 20 January, 2013
WEATHER CONDITIONS BREAKOUT
WIND DIRECTION BREAKOUT
WEATHER BY HOUR - 20 JANUARY, 2013
[ °F ]   °C
Local TimeTemperatureDewpointHumidityBarometerVisibilityWind DirectionWind SpeedGust SpeedPrecipitationEventsConditions
1:52 AM-6.7 °C-9.4 °C81 %1020.7 hPa16.1 kmSE (130°)16.7 km/hClear
2:52 AM-7.8 °C-9.4 °C88 %1020.7 hPa16.1 kmESE (120°)9.3 km/hClear
3:52 AM-8.3 °C-10 °C88 %1022 hPa16.1 kmNorth (10°)20.4 km/hClear
4:11 AM-9 °C-11 °C86 %1018.6 hPa16.1 kmNNE (20°)24.1 km/hPartly Cloudy
4:26 AM-9 °C-11 °C86 %1019.6 hPa16.1 kmNNE (20°)27.8 km/hMostly Cloudy
4:52 AM-10 °C-11.7 °C88 %1025.4 hPa16.1 kmNorth (10°)11.1 km/h31.5 km/hOvercast
5:52 AM-10 °C-12.2 °C84 %1028.8 hPa16.1 kmNorth (10°)24.1 km/h35.2 km/hOvercast
6:52 AM-10 °C-11.7 °C88 %1030.5 hPa16.1 kmNorth (10°)22.2 km/hOvercast
7:06 AM-9 °C-12 °C79 %1025.7 hPa16.1 kmNorth (360°)16.7 km/hOvercast
7:36 AM-9 °C-12 °C79 %1026.1 hPa16.1 kmNorth (360°)16.7 km/hOvercast
7:52 AM-9.4 °C-11.7 °C84 %1031.5 hPa16.1 kmNNW (340°)13 km/hOvercast
8:52 AM-8.9 °C-11.7 °C81 %1032.8 hPa16.1 kmNorth (10°)9.3 km/hOvercast
9:18 AM-8 °C-11 °C79 %1027.8 hPa16.1 kmNNW (330°)7.4 km/hOvercast
9:38 AM-7 °C-10 °C80 %1028.1 hPa16.1 kmNNW (340°)11.1 km/hOvercast
9:52 AM-6.7 °C-10 °C78 %1033.2 hPa16.1 kmNorth (350°)14.8 km/hOvercast
10:13 AM-6 °C-9 °C80 %1028.1 hPa16.1 kmNorth (10°)13 km/hOvercast
10:52 AM-4.4 °C-9.4 °C69 %1033.2 hPa16.1 kmNNE (20°)20.4 km/h0 mmOvercast
11:52 AM-4.4 °C-10.6 °C62 %1031.5 hPa16.1 kmNorth (360°)37 km/h48.1 km/hOvercast
12:52 PM-3.3 °C-10.6 °C58 %1030.1 hPa16.1 kmNorth (360°)40.7 km/h55.5 km/hOvercast
1:52 PM-4.4 °C-11.1 °C60 %1030.1 hPa16.1 kmNorth (360°)42.6 km/h55.5 km/hOvercast
2:52 PM-5 °C-11.1 °C63 %1030.8 hPa16.1 kmNorth (360°)40.7 km/h55.5 km/hOvercast
3:52 PM-6.1 °C-12.2 °C63 %1031.2 hPa16.1 kmNNW (340°)35.2 km/h44.4 km/hScattered Clouds
4:52 PM-7.8 °C-12.2 °C71 %1031.8 hPa16.1 kmNorth (350°)24.1 km/hMostly Cloudy
5:17 PM-8 °C-13 °C68 %1026.1 hPa16.1 kmNNE (20°)24.1 km/hOvercast
5:52 PM-8.9 °C-13.3 °C71 %1032.2 hPa16.1 kmNorth (10°)31.5 km/h42.6 km/hOvercast
6:52 PM-9.4 °C-13.9 °C70 %1032.8 hPa16.1 kmNorth (360°)18.5 km/hOvercast
7:52 PM-10 °C-14.4 °C71 %1033.2 hPa14.5 kmNorth (360°)20.4 km/h31.5 km/h0 mmSnowLight Snow
8:52 PM-10.6 °C-15 °C71 %1032.8 hPa14.5 kmNorth (360°)31.5 km/h40.7 km/h0 mmSnowLight Snow
9:52 PM-10.6 °C-15 °C71 %1032.2 hPa16.1 kmNorth (350°)33.3 km/h0 mmOvercast
10:05 PM-11 °C-15 °C73 %1026.4 hPa16.1 kmNorth (350°)29.6 km/h42.6 km/hOvercast
10:43 PM-11 °C-14 °C79 %1026.8 hPa16.1 kmNorth (350°)18.5 km/h0 mmSnowLight Snow
10:52 PM-10.6 °C-14.4 °C74 %1031.8 hPa14.5 kmNorth (350°)18.5 km/h0 mmSnowLight Snow
11:35 PM-11 °C-14 °C79 %1026.4 hPa16.1 kmNorth (350°)20.4 km/h0 mmOvercast
11:52 PM-10.6 °C-14.4 °C74 %1031.5 hPa16.1 kmNNW (340°)18.5 km/h0 mmOvercast
Hourly data recorded from KRAP, located 0 kilometers away from Rapid City, South Dakota







STORIES FROM OUR PARTNERS